RH
68 70 73 74 74 77 81 88 95 95 94 92 90 89 86 83 81 81 82 84 84 85 82 78 79 83 87 88 88 88 86 83 81 78 75 75 76 77 77 76 74 73 73 75 76 76 77 78 76 74 74 70 64 65 67 67 70 72 71 68 64 61 63 64 60 56 53 54 57 56 51 51 54 58 64 71 73 71 71 75 77 77 78 79 77
67 69 73 75 76 76 75 78 86 92 96 96 95 93 89 86 85 83 82 83 83 83 82 81 81 82 83 82 82 83 81 79 77 74 73 73 74 76 78 78 77 77 78 79 78 76 77 77 74 72 73 70 64 61 62 62 65 67 68 69 68 63 60 62 63 60 55 54 56 58 56 55 56 54 57 66 75 75 73 76 80 79 77 79 79
65 67 71 76 77 77 76 75 78 82 88 93 94 94 94 94 93 90 86 85 86 85 82 79 80 82 82 80 80 81 79 75 74 74 72 72 71 73 77 79 79 81 82 82 81 79 78 78 75 73 73 72 69 64 62 62 62 63 64 66 69 67 62 62 64 62 58 55 55 56 56 57 59 55 53 59 70 76 74 73 78 81 79 79 81
66 66 69 74 77 78 78 78 78 78 78 80 83 85 88 92 93 93 92 91 89 88 86 84 84 84 83 82 81 80 78 74 72 73 72 71 71 71 72 75 78 80 81 81 81 80 79 79 76 74 75 76 75 72 68 65 62 62 62 64 67 69 68 66 66 65 62 59 59 58 57 58 59 58 54 56 65 73 74 72 73 78 81 81 81
67 67 69 72 74 77 79 79 80 80 78 78 78 76 76 79 84 89 93 93 92 92 90 89 88 86 83 81 79 78 78 74 70 70 71 72 73 72 71 72 74 76 79 80 80 79 79 78 77 74 74 76 77 76 74 69 65 63 63 65 66 67 69 70 69 68 66 65 63 62 63 63 62 61 58 57 62 69 73 72 70 72 78 82 81
66 68 70 71 72 74 76 78 79 80 79 79 79 76 73 71 72 74 79 83 87 91 91 91 93 91 86 83 82 81 80 78 74 71 70 70 72 74 74 73 72 72 74 76 78 78 76 76 75 74 73 74 76 77 76 73 69 65 65 66 66 65 66 67 68 69 69 68 66 65 65 66 65 64 63 62 64 67 71 74 74 72 74 78 80
64 66 67 68 70 72 73 75 77 78 77 77 76 75 75 73 71 68 68 71 74 76 80 84 90 93 91 88 88 87 85 83 79 77 74 71 71 72 74 75 75 74 73 73 74 75 74 73 73 73 72 72 73 75 76 76 73 69 68 67 68 68 66 66 67 69 69 68 68 66 66 67 67 66 65 65 66 67 69 73 75 75 73 74 79
64 65 64 65 68 70 71 73 74 74 75 74 74 75 74 74 74 72 70 70 69 67 67 70 75 79 82 84 85 86 87 84 80 80 79 77 75 75 74 73 73 73 73 73 73 74 74 73 73 72 71 71 72 74 75 76 76 77 75 71 70 71 70 69 68 67 67 67 67 66 67 67 67 66 66 67 67 67 68 69 71 75 75 74 77
63 64 64 65 67 67 69 71 71 71 72 71 73 75 74 73 74 73 71 70 70 70 68 66 65 65 68 72 75 79 81 81 80 81 82 81 79 79 79 78 76 74 73 72 72 72 72 73 74 73 72 73 75 76 76 75 77 80 79 76 74 73 71 70 70 68 67 66 65 65 66 65 65 65 66 68 69 67 68 70 72 75 76 74 75
59 62 62 64 65 64 66 69 68 68 70 70 72 73 72 73 74 72 70 70 72 72 71 69 66 64 62 63 66 70 74 76 78 80 82 84 85 82 81 80 80 79 78 76 75 73 72 72 74 75 74 73 75 78 79 77 78 78 77 77 78 77 75 72 70 68 66 64 62 61 61 61 61 62 63 67 70 70 72 76 78 78 76 74 73
55 57 59 60 61 61 64 65 66 66 67 68 69 70 71 73 73 72 72 75 76 76 75 72 69 68 66 64 65 68 71 73 77 79 79 81 85 85 83 82 80 80 81 81 80 79 76 75 74 75 75 75 76 78 80 81 81 81 81 80 80 79 79 77 74 70 66 64 62 59 59 59 59 61 62 62 66 70 73 76 77 77 76 73 68
52 53 55 56 56 59 61 63 64 65 64 64 65 67 68 69 70 70 73 75 76 78 78 75 72 72 72 68 66 67 68 70 72 71 66 65 66 68 76 83 82 78 78 79 79 78 78 78 78 77 76 77 78 78 80 81 82 83 84 85 85 84 85 84 82 77 71 67 63 60 60 60 60 62 61 60 62 65 70 74 75 75 74 71 67
51 51 52 53 55 58 60 61 63 65 64 62 63 64 65 66 66 66 69 71 72 73 74 75 76 76 74 72 69 68 68 68 66 61 54 52 50 50 59 73 78 76 75 75 75 75 76 77 78 78 79 80 80 80 79 78 78 80 82 84 87 88 89 89 88 86 84 79 73 66 62 62 61 61 62 63 63 63 66 70 71 72 72 71 71
50 51 51 52 53 56 58 60 63 66 64 60 61 62 63 65 67 67 67 67 68 68 68 69 71 72 74 76 74 72 72 71 70 63 55 51 51 48 50 61 70 71 71 71 70 70 71 71 72 72 73 75 77 79 79 78 77 78 80 83 84 85 86 86 86 87 88 90 88 79 72 68 65 64 65 66 67 67 67 68 69 72 71 71 75
47 50 52 51 51 54 58 61 63 65 64 60 60 63 65 68 72 71 70 70 70 70 70 67 64 65 69 73 75 76 77 76 75 71 64 57 54 52 54 62 69 69 67 67 67 67 67 67 66 65 65 66 68 71 74 75 76 77 78 81 84 85 86 86 85 84 84 87 90 88 84 80 75 72 70 69 71 73 73 72 72 75 74 73 76
44 48 50 49 51 55 59 62 62 64 65 62 61 64 69 73 75 75 75 75 74 75 76 74 70 67 66 67 68 71 77 81 81 79 77 72 64 62 65 68 69 67 65 65 63 62 61 61 59 59 59 61 61 64 67 70 73 73 71 72 75 77 80 82 84 85 84 83 85 86 86 85 82 80 77 76 77 79 81 83 80 76 76 74 75
44 47 48 50 53 58 62 62 63 65 67 66 65 68 73 76 77 78 78 78 77 77 78 77 75 74 73 70 67 67 72 78 82 85 87 84 79 79 78 73 68 66 66 66 64 62 61 60 58 55 54 54 54 56 58 62 67 69 67 68 70 69 70 73 76 80 83 84 85 85 85 84 82 81 79 79 80 82 88 94 90 81 79 75 73
45 46 49 52 57 61 64 64 66 67 68 68 70 73 76 78 79 80 82 82 82 82 81 79 76 75 74 72 71 72 73 75 80 85 88 88 88 88 82 75 71 69 68 68 68 67 66 67 66 64 62 59 56 55 54 56 61 65 65 66 68 64 63 66 70 72 75 78 81 84 87 88 86 84 82 81 82 84 89 96 96 90 88 83 76
48 47 50 56 60 63 65 66 68 67 66 68 73 76 78 80 82 85 87 87 85 84 83 83 81 79 78 77 78 80 79 79 80 83 86 89 91 87 80 73 72 71 69 68 68 67 67 69 70 70 70 69 66 64 63 62 64 66 66 67 67 64 60 61 64 67 70 74 79 82 86 90 90 90 89 86 85 85 87 92 95 96 98 95 85
48 48 51 58 61 62 64 67 67 65 66 71 76 78 81 83 85 87 88 88 87 86 85 84 84 84 84 83 83 85 84 82 81 83 86 89 90 89 84 77 73 71 69 66 65 64 64 65 66 67 69 70 71 71 72 72 72 72 70 67 66 64 62 62 61 62 64 68 74 79 84 88 90 92 92 90 89 89 89 88 91 95 100 98 90
48 48 52 57 61 62 65 66 65 64 69 75 78 79 81 84 85 87 88 88 88 89 87 85 84 85 85 84 83 84 85 84 83 83 85 87 90 92 88 81 78 76 74 72 70 67 65 64 63 64 66 69 72 74 75 76 78 80 79 76 72 69 68 67 66 65 65 67 70 75 79 83 89 94 95 93 91 91 91 89 88 90 94 94 92
47 48 53 59 63 65 65 65 63 65 70 75 77 78 80 82 84 85 86 87 87 88 86 85 85 84 82 82 81 81 82 81 81 82 83 86 89 90 87 84 85 85 82 80 78 75 73 71 70 70 72 73 75 77 78 78 78 81 82 82 81 80 79 77 74 71 68 68 69 70 71 73 79 86 91 93 92 90 91 91 89 86 86 87 91
47 49 57 63 64 64 64 62 62 67 72 74 76 77 78 81 83 84 85 85 84 84 83 82 82 80 78 77 77 77 77 76 76 78 80 82 84 86 86 87 89 90 88 86 83 81 79 78 77 78 80 82 83 83 83 84 83 83 82 82 83 86 89 90 89 82 74 70 71 71 69 67 70 73 77 81 85 87 88 90 91 89 84 83 87
49 52 57 62 64 63 62 60 61 66 72 73 74 74 76 78 81 82 84 84 81 80 79 79 78 77 75 73 72 72 72 72 73 74 76 79 81 84 87 88 90 91 91 89 87 84 82 81 81 82 84 85 85 85 84 85 86 87 88 87 86 86 87 91 97 95 85 77 75 74 72 69 68 68 70 72 77 82 85 86 88 90 88 86 87
51 54 56 60 62 61 61 61 61 64 68 70 70 72 73 74 77 79 81 82 80 79 78 77 77 75 73 72 71 70 70 71 72 72 74 77 81 84 87 89 90 91 92 91 90 88 87 87 87 89 90 91 91 91 88 85 83 83 85 86 85 85 84 88 95 98 91 82 74 70 69 68 67 67 68 69 72 77 81 84 87 90 89 88 89
53 55 57 60 61 59 60 62 61 61 64 65 66 69 70 70 72 76 79 80 81 80 78 77 76 74 73 73 72 71 72 72 72 72 74 77 81 85 87 88 89 89 88 87 86 85 87 89 91 93 95 96 96 96 95 92 89 85 83 83 83 83 82 84 89 93 91 87 80 73 68 67 65 65 66 68 69 71 73 76 79 82 85 88 90
54 55 56 58 59 58 60 62 61 59 60 61 61 63 65 67 70 75 80 83 84 83 81 80 79 77 75 74 73 73 73 71 70 73 78 82 84 86 87 87 86 85 82 80 83 87 90 94 96 97 98 97 94 91 89 91 92 89 85 82 81 79 78 79 81 82 82 81 79 76 74 71 68 66 66 67 67 68 69 70 69 71 76 82 88
55 56 55 57 58 57 56 59 59 57 58 59 58 58 61 65 69 72 79 86 88 87 85 84 84 83 81 79 78 76 73 71 72 78 85 90 92 92 92 89 88 87 86 88 92 96 98 99 99 99 97 94 90 88 86 86 86 84 80 76 74 73 71 72 74 75 75 74 72 70 69 70 69 67 66 66 65 64 65 66 66 67 70 75 82
58 58 54 53 56 56 55 56 56 55 56 57 56 56 60 65 68 71 79 86 89 90 90 87 85 86 86 84 83 81 78 76 79 86 90 92 93 96 96 94 95 96 96 97 99 100 100 100 100 97 94 89 85 85 84 83 80 78 75 72 70 67 65 66 68 69 71 73 73 70 67 65 64 63 63 63 64 64 64 63 63 65 66 68 75
55 55 50 48 50 52 54 55 54 55 55 54 54 55 56 60 62 67 75 83 86 88 89 88 87 89 89 86 85 86 87 87 89 90 89 88 90 93 93 94 95 97 96 97 99 100 98 98 97 95 93 90 86 83 80 79 78 77 74 72 70 68 66 67 67 66 66 69 71 72 71 68 65 64 62 60 60 60 62 64 64 63 63 64 67
49 50 49 48 49 51 54 54 54 54 53 52 52 51 50 52 54 55 62 73 81 83 84 85 86 89 89 88 89 89 89 89 90 89 88 88 90 91 91 91 91 92 94 97 99 96 93 91 90 91 91 90 87 83 78 76 75 74 74 72 71 70 69 68 68 67 66 67 69 71 72 71 69 67 64 63 62 59 58 61 63 64 66 65 62
46 47 49 51 52 52 50 51 52 52 51 49 49 48 47 48 48 48 52 61 71 76 79 79 80 82 85 87 88 87 84 82 83 85 86 89 90 88 88 89 88 88 90 93 93 91 89 88 88 89 90 89 87 85 81 78 76 75 74 73 71 70 70 68 68 67 65 64 66 68 70 72 72 69 66 64 64 62 59 58 59 61 67 69 63
46 49 51 52 53 51 49 48 49 48 48 48 48 47 47 46 46 49 52 55 59 65 69 71 73 75 78 81 84 85 82 79 79 80 83 86 85 82 81 81 81 82 82 82 80 81 83 85 87 87 88 87 87 87 86 84 83 82 80 79 77 75 73 70 69 69 70 69 68 67 67 69 72 74 73 69 65 64 61 59 56 56 59 61 58
43 46 49 51 52 51 49 48 47 46 48 49 48 47 46 46 48 51 51 51 52 54 57 61 65 68 73 77 79 79 78 79 80 80 82 84 81 77 74 72 71 72 73 73 73 75 78 82 83 82 81 80 80 81 82 81 82 82 83 84 85 84 83 80 76 73 71 70 69 70 71 71 71 72 75 74 71 68 66 63 60 57 56 55 53
39 40 45 51 55 55 52 49 47 48 48 47 46 45 45 47 48 47 46 48 48 46 48 53 58 62 68 72 72 70 69 73 80 82 82 84 82 75 67 64 62 63 65 67 71 75 78 80 80 79 78 77 77 77 77 77 78 78 79 82 86 89 91 91 88 83 77 71 67 66 67 68 70 73 75 76 75 74 73 71 66 62 61 61 59
34 33 39 48 54 54 52 49 48 48 47 47 46 46 47 48 46 44 43 45 45 44 45 48 51 56 61 65 66 61 55 61 74 80 79 81 81 74 66 64 64 65 64 66 70 74 75 75 76 78 79 79 80 80 80 80 81 81 81 84 88 91 93 94 95 95 92 85 78 72 67 66 69 72 73 73 72 71 71 72 71 70 70 69 68
31 26 28 37 45 48 50 51 52 53 53 52 51 48 46 44 43 43 42 42 43 45 46 45 46 48 51 55 60 57 49 52 66 74 73 73 72 68 66 69 71 70 69 70 73 75 74 73 74 76 78 79 80 81 82 82 82 82 83 85 88 92 95 97 98 99 96 91 86 82 77 73 72 71 70 73 75 74 72 73 75 77 79 81 81
37 30 27 28 33 40 46 49 50 53 53 51 48 46 44 43 44 44 42 41 42 43 42 41 42 44 44 47 53 57 53 53 59 63 64 65 64 61 63 70 74 74 74 75 76 78 78 77 77 78 79 80 82 82 82 82 82 82 84 86 89 93 96 97 97 97 96 95 94 92 89 85 82 78 75 76 79 78 77 78 79 77 78 82 85
38 35 30 23 21 28 39 45 46 48 48 47 44 44 45 44 44 42 39 39 40 40 39 38 39 40 43 47 52 56 54 50 50 54 58 61 63 61 62 67 73 76 79 79 79 81 82 82 81 81 82 83 86 87 87 86 85 86 88 91 94 96 98 97 97 97 97 98 99 98 95 92 90 88 84 82 81 79 78 78 78 77 78 81 82
34 33 32 28 26 30 39 46 47 47 47 46 44 43 44 44 44 42 40 40 40 38 38 39 38 38 43 48 53 58 57 51 49 52 56 58 61 63 63 66 72 78 82 83 83 85 87 87 87 87 86 87 92 95 95 95 94 94 95 97 99 100 99 98 98 98 99 99 100 99 95 91 89 88 86 84 84 82 80 80 79 80 82 84 84
33 32 32 33 32 33 36 40 43 44 45 45 43 43 43 43 44 43 42 42 41 38 38 39 38 38 43 49 53 57 58 53 49 51 53 54 57 61 65 68 71 77 82 85 86 90 93 94 95 95 94 95 98 100 99 99 99 99 99 99 100 100 100 99 99 99 99 99 99 98 95 92 89 87 86 86 87 87 85 84 83 82 81 82 85
35 35 34 33 34 35 35 35 36 40 43 46 46 47 46 45 45 45 44 44 44 42 40 39 37 37 43 48 52 55 57 54 51 50 52 53 54 57 62 66 69 74 82 86 89 94 98 99 99 99 99 99 100 100 99 100 99 99 99 100 99 99 100 100 100 100 100 100 99 98 97 95 92 89 87 86 88 89 89 89 89 87 85 84 85
36 37 36 34 33 34 33 33 33 34 37 40 42 43 44 44 44 45 45 46 46 45 43 41 39 37 39 44 49 55 57 53 48 47 50 52 53 55 58 62 67 72 78 82 86 91 96 99 99 99 99 100 100 100 100 100 99 99 99 99 99 99 100 100 99 100 100 100 100 100 98 95 90 88 87 85 86 88 90 92 93 92 91 90 90
36 37 36 35 35 34 34 34 35 34 35 38 40 42 44 45 45 43 43 43 43 44 43 41 39 39 39 40 43 48 49 46 43 45 48 52 54 54 54 57 64 69 71 74 77 81 85 87 89 90 92 96 100 100 99 99 100 100 99 99 99 99 100 100 100 100 100 100 100 100 99 95 90 87 87 88 87 86 86 87 89 91 92 93 93
36 35 34 33 33 33 33 33 35 35 36 39 41 42 44 45 45 45 45 43 41 41 41 40 40 41 41 40 40 41 42 43 44 45 47 48 51 52 51 53 57 62 64 66 69 72 74 73 73 76 81 88 94 99 100 100 100 100 100 100 100 100 99 100 100 99 99 100 100 100 100 98 93 89 88 88 87 86 86 86 87 88 89 89 89
33 34 34 33 32 33 32 32 33 34 35 37 37 37 38 38 39 40 41 41 41 40 39 38 38 38 39 40 41 41 42 44 44 44 44 46 48 49 49 51 54 57 60 61 63 67 69 66 64 66 69 72 77 88 96 98 99 100 100 100 100 100 100 100 100 99 100 100 100 100 100 99 96 93 93 92 88 86 87 88 88 89 90 89 88
34 33 33 33 32 33 33 33 33 34 34 35 35 36 36 36 35 36 37 39 41 42 41 40 38 37 38 39 39 41 43 44 43 43 44 46 47 48 50 53 55 56 56 56 58 62 64 63 61 61 58 53 55 67 80 89 95 99 100 99 99 100 100 98 97 98 100 100 99 100 100 100 98 98 98 96 92 89 90 90 89 89 91 90 88
36 35 34 34 34 34 34 34 34 35 36 36 36 36 37 37 38 38 38 38 39 41 42 41 40 38 38 38 39 41 43 44 45 45 44 45 46 48 50 54 58 58 56 55 55 56 59 60 60 59 54 49 49 54 60 68 77 88 97 100 100 99 99 97 96 96 97 97 98 100 100 99 99 99 97 95 94 93 92 91 90 90 90 89 87
39 37 37 36 36 36 36 35 35 35 36 36 36 37 37 38 39 39 39 38 39 39 40 39 38 37 37 36 37 40 42 44 46 47 45 44 45 46 48 53 58 60 59 57 54 53 55 58 59 58 55 50 47 45 45 48 55 62 73 86 97 100 97 94 92 93 94 94 96 100 100 100 99 97 93 90 90 92 91 90 90 90 89 88 86
41 41 40 40 39 39 39 39 38 38 39 39 39 39 39 40 40 40 40 39 39 39 40 40 40 39 39 38 38 39 42 44 46 46 46 46 46 46 48 53 57 59 60 58 55 53 54 55 56 57 54 46 39 36 35 37 38 35 35 50 72 89 95 93 89 88 89 91 95 99 100 100 101 99 94 89 87 88 89 88 87 87 87 87 85
43 43 43 43 43 43 42 42 42 42 42 42 43 43 43 43 42 42 42 41 41 40 41 41 41 41 42 42 42 43 44 45 46 46 47 48 48 49 50 53 55 57 59 58 55 54 54 52 53 55 52 45 39 36 30 25 22 19 15 20 36 55 73 85 90 89 86 86 91 96 97 96 98 100 97 92 90 89 87 86 86 85 85 85 83
Wind_Speed
9 9 9 8 7 5 1 2 4 6 7 7 8 9 10 12 13 14 14 14 14 15 17 18 18 18 18 18 19 19 19 19 18 17 17 17 16 16 16 18 19 19 19 19 19 19 20 20 20 19 20 20 20 19 20 19 19 20 20 20 22 21 20 20 18 17 18 17 16 15 14 15 18 19 18 17 18 20 21 20 20 21 23 24 25
9 8 8 8 8 7 5 3 1 2 3 4 5 6 7 8 10 12 13 14 14 14 15 16 17 18 18 19 19 19 20 20 19 18 18 17 17 17 17 18 19 19 19 19 20 20 20 21 20 20 20 21 21 20 20 20 19 20 21 21 22 22 21 21 20 18 19 18 17 17 15 16 18 19 18 17 17 19 22 23 22 23 24 24 24
9 9 8 8 8 7 7 6 5 3 1 0 2 3 5 7 8 9 12 13 13 13 14 16 17 16 17 18 18 18 20 21 20 19 19 17 17 17 17 18 19 19 19 20 20 20 20 21 21 20 20 20 21 21 21 21 21 21 21 22 22 23 23 22 21 20 20 19 18 18 17 17 18 18 18 17 17 17 19 21 21 22 24 25 24
8 8 8 8 8 7 7 7 7 6 4 3 2 1 3 6 7 8 9 10 11 12 14 15 16 16 17 18 18 19 20 21 20 19 19 18 17 18 17 18 18 18 19 20 20 20 20 20 21 20 20 20 21 21 21 21 22 21 22 22 22 23 23 23 23 22 21 20 19 19 18 18 18 18 18 17 18 17 17 18 19 20 22 24 24
8 7 7 7 7 7 7 6 6 6 5 5 4 3 2 2 4 5 6 8 9 10 11 13 15 16 18 18 18 18 19 20 20 19 19 18 18 18 17 18 18 19 19 20 20 21 21 21 21 20 20 21 21 22 22 22 22 22 22 22 22 23 23 23 23 23 22 22 22 20 19 19 19 18 18 17 18 18 18 18 20 20 20 21 23
7 6 6 6 6 7 7 7 7 6 6 6 6 5 4 3 2 2 3 5 6 8 9 11 12 14 15 16 16 17 17 18 18 18 19 18 18 18 17 17 18 19 19 20 20 21 22 21 21 21 21 22 22 22 22 22 23 23 22 23 23 23 22 22 22 22 23 24 23 22 21 21 21 20 19 17 17 19 19 18 20 21 21 21 21
7 6 6 6 6 7 7 7 7 7 7 7 7 6 6 5 4 3 3 3 3 5 7 8 10 11 12 13 14 15 16 16 16 17 17 17 17 17 17 18 18 18 18 19 19 20 21 21 21 21 22 22 22 22 22 23 24 24 23 23 23 23 22 21 21 21 22 22 23 23 22 21 21 21 20 18 18 19 19 18 19 21 23 23 22
8 8 7 6 6 6 7 7 7 7 8 8 7 7 7 7 7 6 5 4 4 4 4 6 7 9 10 11 12 13 14 16 16 16 16 16 17 17 18 18 18 18 18 18 18 19 20 21 21 21 22 23 23 22 22 22 21 21 23 24 23 22 22 21 21 21 21 20 20 20 20 20 19 19 19 18 19 20 20 20 20 20 21 23 23
9 8 8 8 7 7 7 7 7 7 8 8 8 8 8 8 8 7 7 6 6 6 6 6 7 8 9 10 10 11 12 14 14 15 15 15 15 16 17 17 18 19 19 18 19 19 19 19 20 21 22 23 24 24 24 23 22 22 24 25 24 23 23 22 21 20 18 18 19 19 18 19 18 18 18 18 20 20 19 19 19 18 19 22 23
9 8 8 8 8 8 7 7 7 7 8 8 8 8 9 8 9 9 8 8 8 8 8 8 9 9 9 9 10 10 11 11 13 16 16 16 16 15 15 16 17 17 18 19 19 20 20 20 20 22 24 25 26 27 29 29 29 29 29 26 24 23 22 22 22 21 19 19 20 19 18 19 19 19 20 19 20 21 19 18 18 18 18 20 21
10 9 9 8 8 8 8 7 7 7 7 8 8 8 9 9 9 9 9 9 9 9 9 10 11 11 11 11 11 10 10 11 13 16 17 17 17 16 15 15 16 16 17 18 19 19 19 20 20 21 23 25 27 29 31 33 34 35 35 34 32 29 25 23 23 23 21 21 22 20 19 20 20 20 21 20 20 22 22 20 19 19 19 20 19
10 10 9 9 9 9 8 8 8 8 7 8 8 9 9 9 9 10 10 10 10 10 11 11 12 12 12 13 14 13 13 13 15 17 17 16 17 17 16 15 15 16 16 17 18 18 18 19 20 20 21 22 24 25 27 29 31 33 35 37 38 38 37 36 33 30 25 23 22 22 21 21 21 21 22 21 21 22 22 21 22 21 20 21 20
10 10 10 10 10 9 9 9 8 8 8 8 9 10 10 10 10 11 11 12 12 13 13 13 13 13 14 14 15 15 14 15 18 21 20 19 19 19 17 16 15 16 16 17 17 17 18 18 19 19 20 21 22 23 23 25 27 29 31 32 34 37 39 40 40 39 37 31 26 24 23 23 23 23 23 23 22 22 21 23 24 24 23 24 24
9 10 10 10 10 10 10 9 8 8 9 9 10 10 11 11 11 12 12 13 13 14 15 15 15 16 15 15 15 15 15 16 18 22 23 22 21 21 20 19 18 18 18 18 19 19 19 19 19 19 19 20 21 22 22 24 25 26 28 30 32 34 35 37 38 40 42 42 39 35 29 27 27 26 25 24 24 24 24 24 25 26 27 27 26
9 10 10 11 11 11 11 10 9 9 9 10 10 11 11 12 12 13 13 13 14 14 15 15 16 16 16 16 16 16 15 15 18 21 22 22 22 21 20 19 18 19 19 20 21 21 21 21 22 22 22 22 23 23 24 25 25 26 26 27 28 29 31 33 35 36 39 43 46 45 39 35 33 30 29 28 27 27 27 26 24 24 24 24 24
10 11 11 12 12 12 11 11 10 10 10 10 11 11 11 12 12 13 13 14 14 14 15 15 15 16 16 16 17 17 16 15 17 19 19 19 18 17 17 17 17 18 19 19 20 21 21 21 22 22 23 24 25 26 28 28 28 28 29 29 29 29 29 30 31 34 36 38 41 44 43 43 40 37 34 32 29 27 27 28 27 24 22 21 22
11 11 12 12 13 12 11 12 12 12 12 12 12 12 13 13 13 13 13 14 14 15 15 15 15 15 16 16 16 17 16 14 14 16 16 15 13 12 13 14 15 16 17 17 18 19 20 21 22 23 24 25 27 29 30 31 31 30 31 31 31 32 32 31 31 34 36 37 38 40 41 43 43 42 40 39 37 33 28 25 26 25 22 18 17
11 11 11 12 12 11 11 11 12 12 13 13 13 14 14 13 13 12 13 14 14 15 15 15 15 15 15 15 15 16 16 15 15 15 15 13 12 11 12 13 13 14 15 16 17 18 19 21 23 25 25 27 29 31 32 33 32 31 31 32 32 32 32 31 31 34 37 38 40 41 41 41 40 41 40 40 43 43 38 32 28 26 22 18 17
11 11 11 11 10 10 10 10 11 12 13 13 13 14 13 12 12 11 12 12 13 13 13 14 14 14 14 15 15 16 16 15 14 13 12 12 11 10 11 13 13 14 15 16 16 17 18 20 22 25 27 29 32 34 34 35 34 32 31 31 32 33 32 32 32 33 33 34 36 39 41 42 42 42 42 38 38 42 45 44 39 32 25 23 23
11 11 11 10 10 9 9 9 11 12 13 13 13 13 13 12 11 11 11 11 12 12 12 13 14 14 14 14 14 14 14 14 12 11 11 12 12 10 11 12 14 15 17 18 18 19 19 20 21 23 25 28 31 32 33 34 36 37 35 34 33 31 30 30 32 33 33 33 32 32 33 35 36 37 39 39 38 39 43 47 47 41 35 33 30
11 11 11 10 10 9 8 9 11 12 12 13 13 13 12 12 12 12 11 11 12 12 13 13 14 13 13 13 12 12 12 12 12 12 12 12 11 10 10 11 13 16 18 19 19 20 20 21 21 22 23 26 28 29 30 31 32 35 37 38 37 35 34 32 31 32 33 32 31 32 31 30 30 30 30 33 36 36 36 41 45 46 44 41 35
11 11 11 10 10 9 9 10 11 11 12 13 13 13 13 12 12 11 11 12 12 12 12 12 12 12 12 11 11 10 11 11 11 11 11 11 12 12 13 13 14 15 17 19 19 20 21 23 24 25 27 29 31 32 34 34 34 36 37 38 38 39 40 41 37 34 33 31 30 32 31 30 30 30 29 31 34 34 33 34 37 41 45 45 42
10 10 10 9 9 9 8 9 11 11 11 12 13 13 13 13 12 11 11 12 12 12 11 11 11 12 11 10 9 9 9 10 10 10 12 13 14 14 15 15 14 15 17 20 22 23 23 24 26 28 29 31 33 35 36 36 38 39 39 38 37 35 36 39 38 36 35 34 32 32 32 31 30 30 30 31 34 36 36 35 34 36 39 42 44
9 9 8 8 8 8 8 8 10 10 11 12 12 13 14 13 12 12 11 11 11 11 11 11 11 12 11 11 10 9 9 10 10 11 12 13 13 13 14 16 17 19 21 23 24 24 24 25 28 31 32 34 35 37 39 41 42 42 42 40 39 37 36 37 35 33 34 35 33 32 32 32 32 32 32 31 31 34 36 36 34 35 36 36 37
8 9 8 8 8 8 8 8 9 9 10 11 11 12 13 14 13 12 12 11 11 11 11 11 11 12 12 12 11 11 11 11 11 11 11 12 13 16 18 20 22 22 22 23 24 25 26 28 31 32 32 32 31 33 36 40 43 44 44 43 41 40 40 39 34 31 33 35 35 34 32 31 31 31 32 31 30 32 34 35 34 35 37 37 36
8 8 8 7 7 8 8 7 8 8 9 10 10 10 11 12 12 11 11 11 11 11 11 12 12 12 12 12 12 13 12 12 12 11 12 14 17 19 21 22 22 21 22 23 24 26 28 30 31 32 32 32 32 32 33 35 37 39 40 39 39 37 36 33 30 28 30 32 34 34 34 31 30 29 28 29 30 30 31 32 33 33 35 36 35
7 8 7 7 7 7 7 7 7 7 7 8 9 9 10 11 11 10 10 10 11 11 11 11 11 11 12 13 13 13 13 13 12 12 13 17 20 21 22 22 21 21 22 22 23 25 27 29 31 32 33 33 32 30 31 33 34 34 33 32 32 32 31 31 30 29 30 32 33 34 33 31 30 30 29 29 30 31 30 30 32 31 30 31 32
6 7 7 6 6 6 6 6 6 6 6 7 7 8 9 9 10 10 9 8 9 10 11 11 11 12 13 13 13 14 14 12 12 14 18 21 22 22 21 21 21 22 21 22 25 26 26 26 26 26 25 24 23 22 23 25 27 28 28 26 27 28 29 29 30 30 31 32 33 34 34 32 31 31 30 30 32 33 31 31 32 31 29 30 30
6 6 6 5 5 6 6 5 5 5 5 5 6 6 7 8 8 8 7 7 8 7 8 9 9 10 12 12 13 14 14 14 15 19 23 24 22 22 21 22 22 22 22 24 28 27 23 20 20 19 19 19 18 18 19 20 20 21 22 22 23 24 25 26 27 29 30 30 30 31 32 33 34 34 33 32 32 32 31 32 33 32 30 31 30
6 5 4 4 5 6 6 5 5 5 5 6 6 6 7 8 8 8 7 8 9 7 6 7 8 8 9 10 11 13 15 17 20 23 23 22 21 22 23 23 21 21 21 23 23 20 17 16 17 16 17 17 16 16 17 18 19 20 20 21 22 23 24 25 25 26 27 27 28 29 29 30 32 33 33 33 33 32 32 32 33 33 32 32 32
6 5 4 4 5 6 6 5 5 6 6 6 7 7 7 7 8 10 11 10 10 10 8 9 10 10 10 11 12 13 15 17 20 21 21 22 22 23 23 19 17 18 20 20 17 15 15 15 15 15 16 17 17 17 18 18 19 20 21 22 22 22 24 26 26 26 26 26 27 29 29 29 29 29 30 31 31 32 32 31 32 33 32 33 34
6 5 5 4 4 5 6 5 6 6 6 6 7 7 7 7 7 10 12 12 12 12 12 12 13 13 14 14 14 15 17 20 21 21 22 23 24 23 20 16 15 19 20 16 14 15 15 15 15 16 16 16 16 17 18 18 19 20 21 22 23 23 24 25 26 27 27 26 27 28 28 29 30 29 29 28 28 29 31 31 32 32 31 33 35
6 6 6 5 5 6 6 5 6 6 6 6 7 7 8 8 8 9 10 10 11 12 12 13 15 16 17 17 17 18 20 22 22 21 22 24 24 22 20 18 16 17 18 17 15 16 16 15 16 16 15 15 15 16 17 18 19 21 22 24 25 26 27 28 28 29 29 29 30 30 29 29 29 28 28 29 29 29 29 30 31 31 30 31 33
7 7 6 6 7 7 6 5 6 6 6 6 7 7 7 8 8 9 9 9 10 10 10 11 13 15 18 19 19 20 22 23 22 20 22 24 23 21 20 19 16 15 15 16 16 16 16 16 16 16 16 16 15 15 16 17 18 19 21 23 25 27 28 29 30 30 29 29 30 30 29 29 29 28 28 29 29 29 29 29 29 30 30 31 32
7 8 8 8 8 8 6 6 6 6 6 7 8 8 8 8 8 9 9 9 10 10 10 9 10 13 16 19 20 22 24 23 21 20 22 23 23 21 20 18 16 15 16 16 15 15 15 15 15 16 17 17 16 16 16 17 17 18 20 22 24 26 27 28 29 29 30 29 29 28 28 28 28 28 29 29 29 28 28 28 28 28 29 30 31
7 7 7 8 8 7 6 6 6 6 6 8 8 8 7 8 8 9 9 9 9 10 10 9 9 11 13 14 17 22 25 23 20 19 21 21 21 21 18 16 16 16 16 16 16 15 15 15 15 15 16 16 16 17 17 17 18 19 20 21 23 23 25 26 27 30 32 32 31 29 29 28 27 28 30 30 30 30 29 29 29 29 29 30 30
6 6 6 6 6 7 7 7 7 7 8 9 9 8 7 8 8 9 9 9 9 10 10 10 10 11 10 9 12 18 23 22 18 17 17 18 19 18 16 15 15 16 15 16 16 16 15 15 15 15 15 15 16 16 17 17 18 18 19 21 21 21 23 26 27 29 31 30 29 28 29 28 27 28 28 28 28 30 30 29 28 29 31 32 31
6 6 6 7 7 8 8 8 8 8 9 9 8 8 8 8 8 8 9 9 9 10 10 10 10 11 10 10 12 16 19 18 15 13 14 15 15 16 16 16 15 15 15 15 15 15 15 16 16 15 15 15 15 16 16 16 17 18 19 20 20 20 22 24 25 25 25 25 25 27 30 30 30 30 29 28 26 27 28 28 28 28 29 29 27
7 7 7 8 8 9 9 9 9 9 9 9 9 9 9 9 9 9 9 9 9 10 10 10 10 10 10 10 12 15 17 16 13 12 12 12 12 14 16 16 15 15 15 15 15 14 14 15 16 16 16 15 15 16 16 16 17 18 18 20 21 21 21 21 22 23 23 24 26 27 28 29 31 32 33 32 29 28 27 28 28 28 27 26 26
7 7 7 8 9 8 9 9 10 9 9 9 9 9 9 9 9 10 10 10 10 11 11 11 11 11 9 9 12 15 15 14 13 12 12 12 12 12 13 14 15 15 15 15 15 15 15 15 15 15 15 15 15 15 15 15 17 18 18 19 20 21 21 21 21 22 23 24 26 27 27 27 27 28 29 30 31 32 32 30 28 28 28 28 29
7 7 7 9 9 9 8 9 10 9 9 10 10 10 10 10 10 10 10 11 11 11 11 11 12 11 10 11 14 16 15 13 12 12 12 12 12 12 11 11 13 14 15 15 14 14 14 14 14 14 14 14 14 14 14 15 15 16 17 18 20 22 23 22 22 22 23 24 25 25 25 26 25 25 25 27 29 31 33 33 31 31 30 30 31
9 8 8 8 9 8 8 9 9 9 10 11 10 10 10 10 11 11 12 12 12 12 12 12 12 11 11 13 16 17 15 12 11 11 11 11 12 12 11 11 11 12 13 13 13 13 13 14 14 14 14 14 14 15 16 16 15 15 16 17 20 22 23 24 24 25 24 23 23 25 27 27 26 25 25 26 25 26 28 30 32 32 30 29 30
10 10 10 9 9 9 10 10 10 10 11 11 11 11 12 12 13 13 13 13 13 13 13 13 13 12 12 13 15 15 13 11 11 11 12 11 11 11 11 11 10 10 11 11 11 12 12 13 14 14 15 16 17 16 16 16 16 15 16 17 19 20 23 25 27 28 26 25 26 27 28 28 26 24 23 22 21 21 22 23 26 28 28 28 29
11 11 11 11 11 11 11 11 12 12 12 12 13 14 14 14 14 14 14 14 13 13 14 14 14 13 13 13 13 12 12 11 12 12 12 12 12 12 12 11 10 10 10 10 10 11 11 12 14 15 16 16 16 15 15 15 16 16 17 18 19 21 23 25 28 29 28 26 27 27 26 25 24 22 21 19 17 15 14 13 14 16 18 19 21
12 12 13 13 13 14 14 14 14 14 14 14 14 14 14 14 13 13 14 14 14 14 14 14 14 14 14 13 12 12 12 12 12 12 12 12 12 12 12 12 11 11 11 11 11 11 11 13 14 16 16 16 14 14 14 14 15 15 16 16 17 18 19 22 27 29 26 24 24 24 24 23 22 21 20 19 15 12 11 10 10 10 10 9 8
13 14 15 15 15 16 16 16 16 16 16 15 16 15 15 15 15 15 15 15 14 14 15 15 15 15 15 14 14 13 13 13 13 12 12 12 13 13 13 12 12 12 12 12 11 11 12 13 14 15 16 17 16 15 14 13 13 13 13 13 15 16 18 23 27 27 24 23 23 22 21 21 20 20 20 19 16 12 11 12 13 14 13 12 10
15 16 16 17 17 17 17 17 17 17 18 18 18 18 18 18 18 17 17 17 16 16 16 15 15 15 15 15 14 14 13 13 13 13 13 13 13 13 13 13 13 13 13 13 13 12 12 13 14 14 16 18 19 17 15 14 13 12 12 14 18 21 23 26 27 25 24 23 23 21 20 19 18 18 20 20 18 15 15 15 16 18 18 16 16
16 16 17 17 17 17 17 17 17 17 18 18 18 18 18 18 18 18 18 18 17 17 16 16 15 15 15 15 14 14 14 14 13 13 13 13 13 13 13 13 13 14 14 14 14 13 12 13 14 15 17 18 18 17 17 17 17 17 17 18 20 23 25 25 25 25 25 24 21 19 19 18 17 18 21 22 20 18 18 17 17 18 18 17 17
14 15 15 15 15 16 16 16 16 17 17 17 18 18 18 18 18 18 19 19 18 18 18 17 16 16 15 14 14 14 14 14 14 14 13 13 12 13 13 13 13 14 14 14 14 14 13 13 14 15 16 17 17 17 18 18 18 21 23 23 22 22 23 24 24 24 25 23 20 18 18 18 17 18 20 21 20 19 19 19 18 17 17 18 17
12 12 13 13 13 14 14 14 15 15 16 16 16 16 17 17 18 18 19 19 19 19 18 18 17 16 15 15 14 14 14 14 14 14 13 13 13 13 13 13 14 14 14 14 15 14 14 13 13 14 15 17 19 19 18 18 18 21 24 26 25 24 23 23 22 22 23 22 20 18 17 17 17 17 18 19 19 19 19 20 19 18 18 18 17
10 10 11 11 11 12 12 12 13 14 14 14 15 15 15 16 16 16 17 18 18 18 18 18 17 17 16 15 14 14 14 14 14 14 14 14 13 13 13 13 14 14 14 15 15 15 14 14 13 13 14 17 18 18 18 20 21 22 24 25 24 23 23 22 21 21 21 20 18 16 16 16 16 15 15 17 17 17 16 17 18 17 17 16 16
Wind_Direction
31 35 40 41 42 42 23 238 233 234 231 231 236 241 244 247 250 251 252 252 252 251 250 250 249 247 243 239 237 237 236 233 228 228 232 233 232 233 232 232 233 234 236 235 235 235 234 236 237 236 235 237 240 239 237 237 237 238 240 240 242 240 237 241 250 256 257 258 256 252 243 236 230 225 220 210 213 221 218 214 218 222 226 230 229
17 22 28 33 36 38 37 29 330 250 231 231 239 244 246 249 250 248 247 248 247 245 244 246 247 246 245 243 240 238 236 233 232 231 231 230 231 231 230 230 232 232 235 237 237 238 236 236 239 238 236 236 238 239 239 237 235 235 236 237 239 239 236 237 244 253 257 256 256 254 247 241 237 234 231 222 215 219 219 214 213 218 223 224 224
7 9 15 20 26 32 36 36 33 34 42 351 271 260 255 252 249 246 244 244 243 242 240 241 242 241 242 243 241 241 241 240 238 235 233 231 230 230 229 230 232 233 235 238 241 244 244 242 241 241 240 239 236 237 240 240 239 238 237 236 237 239 238 237 239 246 253 256 256 255 250 245 242 240 241 237 227 222 221 217 213 214 220 221 217
6 5 7 10 16 23 31 36 36 36 42 45 42 319 271 260 254 250 246 245 243 241 239 238 239 238 238 240 241 243 245 246 243 239 238 237 233 232 229 228 230 232 235 239 241 245 248 247 246 244 243 242 238 235 237 240 241 242 242 241 239 240 240 238 238 241 247 253 254 254 254 251 248 246 247 244 235 231 229 225 221 216 219 221 216
5 6 4 3 9 14 17 24 26 27 29 29 32 32 358 302 282 267 257 254 250 247 243 240 240 240 239 239 241 241 242 244 244 242 241 240 238 236 233 230 229 229 231 236 240 242 244 246 248 246 244 244 242 238 236 237 240 242 243 243 242 242 241 240 240 241 243 248 251 253 254 254 254 252 249 247 241 236 233 232 233 229 223 223 221
7 10 8 2 1 3 4 6 6 7 9 8 8 7 5 -0 345 313 284 273 264 256 250 245 244 244 243 242 241 240 241 242 245 245 243 241 240 239 239 237 236 233 232 233 236 239 242 243 245 245 245 245 245 243 239 238 239 239 240 243 244 244 244 244 244 243 244 247 250 252 252 253 256 254 250 248 243 239 235 229 232 236 232 229 228
12 14 14 8 1 356 354 353 352 352 352 352 352 351 349 346 341 338 328 309 290 272 261 255 251 248 246 245 243 244 245 245 247 249 247 245 243 242 241 241 242 242 239 237 237 239 241 243 244 245 246 247 247 246 244 243 242 240 239 241 244 245 246 245 245 244 246 248 250 251 252 252 253 253 250 247 244 242 240 233 229 235 238 235 232
17 17 17 13 7 358 350 346 344 343 340 339 339 339 338 335 331 330 327 318 307 294 283 273 264 257 253 249 246 248 248 247 247 248 247 247 247 246 245 245 246 247 246 245 244 243 243 244 245 245 246 247 247 246 245 246 247 245 242 241 241 242 243 244 244 244 244 247 250 251 252 251 250 251 249 245 242 239 239 242 237 234 239 240 236
16 16 17 15 8 1 354 347 340 337 336 333 331 331 328 325 322 319 315 310 304 299 294 287 277 268 261 254 249 247 246 244 244 245 245 247 249 249 249 248 248 248 249 250 248 248 248 246 245 245 246 247 247 245 243 242 243 244 245 245 243 241 241 242 243 243 242 246 249 249 250 249 247 247 244 239 239 237 236 243 241 231 239 247 241
13 12 13 11 5 360 357 351 344 339 337 333 329 327 322 320 316 312 307 302 299 297 292 288 283 276 269 263 256 250 246 243 242 242 242 244 249 255 258 256 254 253 251 251 251 251 250 249 248 247 248 249 250 249 247 244 242 243 244 244 244 245 246 244 243 243 242 244 246 244 245 247 245 245 244 239 238 237 232 235 239 233 239 248 243
11 10 8 5 2 -0 357 353 347 342 337 332 329 325 320 317 312 307 305 302 298 295 288 283 280 277 274 271 266 260 254 249 245 242 241 243 249 256 262 265 264 260 257 255 255 255 253 253 252 251 250 250 250 251 251 250 248 247 247 245 243 244 248 251 251 248 244 243 245 243 243 246 245 244 246 243 237 235 231 231 235 234 235 245 245
11 9 7 1 -0 359 354 351 348 343 337 333 329 325 319 314 309 304 302 301 297 292 288 282 278 275 272 271 269 265 261 257 254 252 252 253 255 257 260 266 268 266 264 262 261 260 259 258 257 255 254 251 250 252 253 254 255 254 253 250 248 247 248 251 254 254 251 248 246 244 242 246 247 244 244 243 237 233 232 231 234 233 233 241 248
11 8 4 1 360 356 351 350 348 344 340 335 330 325 319 313 309 304 300 298 293 287 284 281 279 277 273 270 267 265 263 263 263 265 266 265 264 262 260 262 265 266 266 267 267 267 265 265 263 260 258 256 255 255 255 257 259 260 259 257 254 253 252 251 250 251 253 256 255 250 245 244 246 245 244 243 241 235 229 228 231 231 231 235 239
8 6 2 -0 357 352 349 347 346 343 339 336 331 324 319 314 308 303 298 295 290 286 283 280 277 276 274 272 270 267 265 263 264 267 269 269 269 266 262 260 260 261 262 263 264 265 266 267 267 266 265 264 261 259 258 258 259 260 260 258 256 257 257 255 252 250 250 252 254 254 251 248 248 246 244 243 241 237 231 227 226 225 226 230 231
5 2 359 357 354 350 348 344 343 339 335 334 332 324 318 314 309 306 302 296 292 289 286 282 277 275 275 275 275 274 270 267 267 269 271 272 273 271 268 264 261 260 260 259 260 262 262 264 266 267 268 267 265 264 264 264 263 262 261 259 256 255 255 255 254 252 250 249 249 249 250 251 252 251 250 248 245 241 235 231 230 225 224 229 230
1 359 356 354 351 348 345 342 340 337 333 332 331 326 322 316 311 308 305 300 297 294 290 287 282 278 277 276 275 276 275 275 275 277 280 279 277 274 271 266 261 260 259 259 259 260 261 262 263 265 265 265 265 264 264 265 267 267 266 264 262 260 257 254 255 256 254 251 249 247 247 248 249 249 250 251 252 251 244 241 242 235 226 227 232
356 355 353 350 347 344 342 341 339 337 336 333 331 329 325 319 315 312 308 304 300 297 294 290 285 282 280 277 275 276 278 280 281 284 288 289 286 281 274 269 265 263 263 262 262 261 261 260 261 263 264 264 264 263 263 263 263 264 265 265 265 264 262 260 259 260 261 259 256 253 250 249 250 250 250 250 252 257 257 252 247 240 231 228 230
351 351 348 346 344 341 340 341 340 339 338 335 332 329 326 322 319 316 311 306 301 298 297 293 288 284 281 278 277 278 278 279 282 287 290 294 296 289 281 278 274 271 270 268 266 266 264 262 261 262 262 262 262 262 262 262 261 260 260 261 261 261 261 261 260 260 262 263 261 259 255 253 252 253 254 253 252 253 257 256 252 245 238 234 233
347 346 344 342 340 340 340 341 342 340 337 335 331 328 326 323 321 317 313 308 304 302 299 296 293 290 285 283 282 281 279 279 283 289 292 297 300 292 283 282 282 280 279 277 274 272 270 267 264 263 263 264 264 264 263 263 263 262 261 261 260 259 258 257 256 256 258 258 258 257 255 254 253 251 252 255 253 250 250 253 251 245 238 238 240
343 341 341 340 339 341 342 343 345 342 340 339 335 331 329 325 321 319 314 309 307 305 303 300 297 294 291 289 286 282 281 282 283 288 294 298 299 294 287 286 287 287 287 285 283 279 275 272 269 267 267 269 270 270 268 266 265 264 263 262 261 262 263 261 258 257 257 256 255 254 254 254 252 249 249 251 252 250 248 249 248 244 241 243 242
340 339 340 341 341 343 343 345 347 345 343 343 339 336 333 326 323 322 317 312 310 307 306 306 302 299 297 294 290 288 285 284 286 293 300 301 298 295 293 294 295 296 293 289 286 283 279 277 274 271 271 271 271 271 271 270 270 269 265 263 262 264 268 271 270 266 263 260 257 255 252 250 246 244 243 245 246 247 245 244 244 243 242 242 241
338 338 339 340 341 342 343 348 350 346 346 346 344 342 340 332 327 326 321 318 316 313 312 312 309 308 306 301 297 296 292 291 293 298 304 305 301 298 297 296 297 298 296 291 286 283 281 279 278 276 276 275 273 272 272 272 274 274 272 271 270 269 268 268 270 269 267 264 261 257 254 250 246 242 240 240 242 242 239 237 239 240 241 241 240
334 335 335 336 340 340 341 349 353 349 348 348 348 349 348 341 335 333 329 326 323 320 320 321 319 317 316 313 310 306 303 303 304 305 308 309 308 307 305 300 295 294 293 289 286 284 282 280 280 279 277 276 274 273 273 272 273 274 275 275 275 275 274 271 267 264 263 262 261 259 255 252 248 245 242 241 242 240 236 234 233 235 239 241 240
331 332 332 335 340 341 343 350 353 352 350 350 350 353 353 350 346 342 338 334 330 327 326 326 325 324 322 321 320 319 317 314 311 313 316 317 317 315 308 299 295 295 292 287 283 282 281 280 279 278 277 276 275 274 272 269 268 269 270 271 273 274 276 275 270 263 259 256 256 256 255 252 250 249 247 245 244 242 241 239 236 233 234 235 236
329 331 334 338 342 344 347 352 355 355 356 354 353 354 354 354 352 349 346 341 336 333 330 328 326 324 324 325 325 325 324 321 319 321 325 326 323 316 307 304 304 303 296 287 284 284 284 286 288 288 288 288 287 283 278 273 270 268 267 268 270 271 271 271 268 263 260 257 254 254 255 254 253 252 251 250 249 247 245 243 240 235 233 234 235
326 330 333 338 344 347 351 355 353 355 359 359 358 357 356 356 355 351 348 344 340 335 332 329 328 327 326 326 326 326 326 324 322 322 326 328 325 319 316 315 314 311 304 298 296 296 295 295 294 292 290 289 287 284 281 279 276 273 269 266 264 263 262 261 259 257 258 259 259 259 258 257 257 257 255 252 249 247 246 245 243 239 236 236 236
324 330 332 336 342 346 353 355 348 349 358 359 359 360 359 359 360 356 350 345 340 335 331 329 329 329 328 327 327 327 325 325 327 330 331 329 325 322 322 320 319 316 312 307 304 301 298 296 293 289 286 287 287 283 280 279 277 271 266 262 257 253 251 251 251 252 254 256 258 260 260 261 261 259 256 253 249 246 245 245 245 242 237 235 235
313 321 324 330 338 341 347 351 347 347 352 351 354 2 3 2 3 4 0 352 341 332 329 328 327 325 324 323 324 325 325 328 331 328 326 324 322 320 319 319 319 316 311 309 310 308 304 300 297 293 289 287 287 284 279 278 273 263 258 257 255 251 250 249 249 250 252 254 255 256 257 258 258 256 255 253 251 248 246 244 245 242 236 235 236
295 306 314 324 334 336 338 346 350 348 346 344 348 358 360 358 1 5 3 1 355 339 328 327 327 324 322 321 322 322 321 322 319 316 316 318 319 318 315 315 315 312 310 317 320 315 310 307 302 299 295 289 287 284 278 275 274 270 265 263 260 259 258 256 253 252 252 253 254 255 255 255 254 253 253 252 251 251 248 246 245 243 238 236 236
283 290 308 328 336 331 327 338 346 342 343 345 341 338 341 347 353 353 349 359 9 4 348 343 344 336 326 325 323 317 312 312 315 319 322 324 325 324 321 320 319 318 321 328 326 316 313 314 309 303 298 292 289 287 281 277 281 286 285 278 272 269 267 264 262 261 258 256 254 255 256 256 255 253 252 251 251 251 248 246 245 245 243 240 238
285 286 304 329 335 323 317 327 335 332 337 342 338 335 334 334 341 345 345 353 5 6 359 1 5 360 347 337 329 321 319 324 329 334 337 337 336 333 328 325 330 337 339 337 327 319 320 321 318 313 305 296 294 296 292 285 281 283 285 283 279 275 271 267 265 265 263 261 257 255 254 254 255 255 253 251 251 251 249 247 245 244 244 244 245
283 289 298 308 315 313 312 319 324 325 332 338 337 338 336 331 334 339 340 344 351 352 350 352 356 357 355 350 341 335 339 345 347 348 348 348 347 346 344 341 344 350 354 349 333 327 329 326 322 321 318 311 309 309 307 300 292 288 287 286 283 281 278 275 273 270 267 264 260 257 254 252 253 254 255 253 252 252 251 249 247 245 245 246 248
275 282 292 299 303 306 308 314 318 321 327 332 332 334 335 334 333 330 328 331 336 338 340 341 341 343 345 346 344 343 346 349 349 350 351 353 356 359 359 356 352 353 358 356 345 339 339 334 328 327 326 323 321 319 316 313 308 303 299 296 293 289 285 282 279 275 271 268 265 263 260 256 253 252 252 250 250 251 251 251 250 249 249 248 249
267 269 278 291 297 297 298 307 316 318 320 323 323 324 327 329 327 322 319 322 326 329 330 331 333 333 333 333 337 344 347 346 345 348 352 356 2 7 4 359 356 357 356 352 345 342 341 337 332 331 331 330 329 327 323 320 318 316 312 308 305 302 297 292 286 280 275 272 269 266 263 259 256 253 251 250 250 251 251 250 250 250 250 250 251
265 263 266 274 280 282 287 298 306 308 314 319 317 314 317 318 318 319 318 318 323 326 325 324 325 324 323 325 332 341 345 344 345 349 352 355 2 8 5 358 357 357 355 351 346 340 337 334 332 331 331 330 329 329 328 327 327 326 323 318 314 311 308 304 296 291 286 282 277 273 269 265 262 258 255 252 252 252 250 249 250 252 251 251 252
271 267 262 261 264 270 280 289 294 299 309 313 307 302 305 309 313 315 315 314 319 321 319 320 319 315 316 323 331 337 342 346 350 352 351 353 359 1 357 352 351 351 350 352 349 342 336 334 331 329 328 328 328 328 327 326 325 324 322 320 317 314 312 309 304 300 298 294 290 285 279 274 270 265 261 257 256 255 254 253 254 255 255 256 259
277 277 271 267 270 278 282 281 281 286 293 294 292 291 298 306 309 310 309 312 316 314 312 316 319 316 318 326 332 336 341 346 350 349 348 352 356 354 348 345 344 343 343 346 345 342 340 339 336 333 330 328 327 327 326 324 323 322 321 320 317 314 314 313 310 307 303 300 296 292 287 284 282 278 273 267 261 259 259 258 258 258 257 257 259
270 273 274 273 273 278 282 281 278 280 283 283 283 289 296 300 302 303 304 307 309 308 308 314 316 316 321 329 334 336 337 339 341 342 342 346 350 347 342 339 338 336 338 340 339 338 337 336 336 335 332 330 328 327 326 325 324 323 323 321 319 318 319 319 318 315 312 308 303 299 295 292 290 287 284 279 271 266 261 256 255 257 258 254 251
269 270 275 278 275 272 275 279 280 280 281 283 286 290 293 293 296 300 304 305 306 306 309 311 312 312 317 325 332 336 336 333 333 336 337 339 341 339 336 335 333 331 332 334 334 334 334 332 332 331 329 328 326 324 323 323 323 323 323 321 320 320 322 323 321 318 316 314 311 307 302 297 293 289 285 281 278 275 270 263 257 255 255 254 252
276 276 278 281 278 270 265 268 272 275 277 280 285 287 288 290 294 297 300 302 303 304 304 304 305 308 310 312 322 332 332 325 323 328 330 330 331 330 330 329 327 326 326 327 329 329 327 327 327 326 324 324 323 322 321 321 321 321 322 322 321 321 322 323 321 319 316 315 313 310 305 302 300 296 287 279 275 272 270 268 265 260 255 254 255
275 278 275 275 276 272 264 263 267 271 273 276 280 283 284 285 287 289 291 294 296 298 298 296 297 301 298 294 307 321 322 311 309 317 322 322 323 323 323 322 321 320 319 321 323 323 321 320 320 320 320 320 320 322 323 323 322 322 323 324 325 324 323 323 323 321 318 316 313 309 305 302 301 299 293 286 280 273 268 265 264 261 257 253 252
270 273 271 269 269 268 266 267 271 271 271 271 272 275 278 281 283 283 284 285 285 288 291 291 292 295 290 285 296 310 311 298 296 305 310 312 316 316 314 315 316 314 312 313 315 316 316 316 316 315 315 315 317 321 324 324 324 324 323 325 327 326 326 326 326 325 323 319 314 311 309 305 302 299 296 293 288 279 271 266 262 260 259 256 253
263 267 268 267 265 265 268 273 275 275 274 273 273 275 277 278 279 278 277 276 277 279 283 286 289 292 290 288 292 297 293 286 291 298 299 301 306 308 307 307 308 306 304 303 305 307 309 312 314 314 313 313 314 315 318 320 321 321 322 324 326 326 327 328 330 331 329 324 318 316 314 310 306 305 304 303 297 287 278 271 264 261 259 258 256
261 263 265 265 264 264 266 268 269 270 270 268 268 269 268 268 270 272 271 272 273 273 277 281 284 287 289 289 288 285 281 284 291 294 292 293 295 297 300 301 300 300 299 296 296 300 303 305 309 313 316 316 314 311 312 315 318 321 322 321 323 327 329 330 332 333 330 324 320 317 315 311 310 309 310 312 311 305 298 293 285 278 272 266 261
261 263 264 265 264 264 265 265 265 266 264 262 262 263 261 260 262 263 264 266 269 270 272 275 277 278 280 282 282 281 281 285 288 288 288 290 291 291 294 296 296 298 299 295 293 295 299 302 308 313 317 318 315 311 310 311 313 318 321 319 319 324 326 327 331 334 331 324 320 316 313 313 314 316 317 317 319 325 334 343 347 343 332 314 292
262 263 263 264 264 265 267 269 269 269 267 267 268 269 268 267 267 265 263 263 265 267 270 272 273 273 273 273 273 274 276 279 283 285 285 286 287 289 291 292 292 294 296 295 293 291 294 302 309 312 313 317 318 316 314 312 311 313 318 318 319 322 325 330 335 337 331 324 320 318 317 318 319 325 331 330 327 336 358 12 21 23 19 13 12
262 263 263 265 266 266 267 268 269 269 270 271 271 271 271 272 271 269 265 262 260 260 263 267 268 268 268 267 268 270 271 273 276 280 282 283 284 285 286 287 289 291 292 293 293 291 291 297 304 307 313 320 323 321 318 315 312 310 314 319 323 327 332 337 339 337 331 326 323 320 322 325 326 335 347 349 347 353 8 20 27 31 34 32 29
260 262 264 265 266 267 269 271 271 271 271 272 272 272 272 272 272 271 269 267 262 258 258 261 263 263 264 264 265 266 269 270 272 275 278 280 280 282 283 283 284 287 289 290 290 289 289 292 298 305 312 319 321 320 318 318 318 318 322 325 325 328 333 338 339 336 333 333 329 324 325 330 335 344 357 3 3 7 15 21 23 29 37 42 40
261 264 267 269 270 271 274 277 278 279 279 279 279 278 277 275 274 274 274 274 272 267 265 265 266 266 265 264 263 263 265 267 269 271 274 276 278 281 283 282 282 285 287 288 288 288 288 289 293 300 307 312 315 317 318 319 319 321 325 327 326 326 330 334 336 335 335 336 335 330 329 332 338 347 360 9 12 14 20 25 24 26 35 40 40
267 269 272 274 275 277 278 280 281 282 283 284 283 282 280 278 277 276 276 277 277 275 272 271 270 269 266 264 262 261 261 262 264 268 271 275 277 279 281 282 283 285 286 287 288 288 288 287 288 292 299 307 313 316 318 319 318 319 323 325 325 326 328 329 332 334 335 337 337 334 331 331 335 343 356 8 14 15 19 23 23 24 27 29 30
271 272 274 277 278 281 283 285 286 287 288 288 287 286 285 283 282 282 283 283 283 282 281 279 277 274 270 264 260 258 258 258 260 263 266 270 273 275 278 282 285 286 286 288 289 288 287 287 287 288 294 303 310 313 315 316 317 319 321 322 323 325 327 328 329 332 334 337 338 335 331 332 335 338 347 1 10 14 17 22 25 24 22 20 21